AZU9577 SBSL-SBCJ

Flight info

Callsign AZU9577
Flight time 1h 10m
Altitude 38000
Route SATPU DCT ORIRO
Aircraft A20N/M-SDE2E3FGHIRWXY/LB1

Departure

Time 2026-05-09 14:14
Airport Marechal Cunha Machado International Airport (SBSL)

Arrival

Time 2026-05-09 15:25
Airport Carajás Airport (SBCJ)
Time Latitude Longitude Altitude Speed Heading
2026-05-09 14:01 -2.58429 -44.23609 180 ft 0 kts 340°
2026-05-09 14:04 -2.58434 -44.23608 180 ft 2 kts 340°
2026-05-09 14:04 -2.58447 -44.23603 180 ft 2 kts 339°
2026-05-09 14:04 -2.58462 -44.23597 180 ft 2 kts 351°
2026-05-09 14:05 -2.58476 -44.23598 180 ft 2 kts 15°
2026-05-09 14:05 -2.58490 -44.23604 180 ft 2 kts 38°
2026-05-09 14:05 -2.58500 -44.23615 180 ft 2 kts 60°
2026-05-09 14:05 -2.58503 -44.23622 180 ft 1 kts 73°
2026-05-09 14:06 -2.58505 -44.23626 180 ft 0 kts 70°
2026-05-09 14:08 -2.58501 -44.23616 180 ft 3 kts 70°
2026-05-09 14:08 -2.58489 -44.23583 180 ft 6 kts 71°
2026-05-09 14:09 -2.58472 -44.23537 180 ft 8 kts 70°
2026-05-09 14:09 -2.58451 -44.23477 180 ft 7 kts 71°
2026-05-09 14:09 -2.58461 -44.23426 180 ft 8 kts 130°
2026-05-09 14:09 -2.58515 -44.23391 180 ft 10 kts 186°
2026-05-09 14:10 -2.58652 -44.23493 180 ft 14 kts 217°
2026-05-09 14:10 -2.58736 -44.23561 180 ft 16 kts 219°
2026-05-09 14:10 -2.58828 -44.23636 180 ft 18 kts 219°
2026-05-09 14:11 -2.58931 -44.23718 180 ft 19 kts 219°
2026-05-09 14:11 -2.59041 -44.23806 180 ft 20 kts 218°
2026-05-09 14:11 -2.59157 -44.23900 180 ft 21 kts 218°
2026-05-09 14:11 -2.59277 -44.23997 180 ft 22 kts 219°
2026-05-09 14:12 -2.59405 -44.24098 180 ft 23 kts 217°
2026-05-09 14:12 -2.59533 -44.24205 180 ft 24 kts 219°
2026-05-09 14:12 -2.59640 -44.24294 180 ft 9 kts 243°
2026-05-09 14:12 -2.59678 -44.24343 180 ft 10 kts 155°
2026-05-09 14:13 -2.59640 -44.24282 180 ft 20 kts 37°
2026-05-09 14:14 -2.53774 -44.19606 1855 ft 224 kts 35°
2026-05-09 14:15 -2.52345 -44.19136 2217 ft 247 kts
2026-05-09 14:15 -2.50829 -44.19475 2637 ft 266 kts 333°
2026-05-09 14:15 -2.49480 -44.20779 3279 ft 278 kts 303°
2026-05-09 14:15 -2.48521 -44.22480 4006 ft 283 kts 300°
2026-05-09 14:16 -2.47559 -44.24193 4706 ft 289 kts 301°
2026-05-09 14:16 -2.46562 -44.25928 5461 ft 292 kts 302°
2026-05-09 14:16 -2.45533 -44.27685 6237 ft 295 kts 302°
2026-05-09 14:16 -2.44487 -44.29462 7021 ft 299 kts 302°
2026-05-09 14:17 -2.43467 -44.31263 7801 ft 302 kts 295°
2026-05-09 14:17 -2.43049 -44.33314 8557 ft 307 kts 267°
2026-05-09 14:17 -2.43590 -44.35350 9306 ft 309 kts 240°
2026-05-09 14:17 -2.44959 -44.36970 9954 ft 309 kts 213°
2026-05-09 14:18 -2.46900 -44.37857 10519 ft 309 kts 187°
2026-05-09 14:18 -2.49056 -44.37833 10890 ft 314 kts 165°
2026-05-09 14:18 -2.51265 -44.37390 11213 ft 332 kts 172°
2026-05-09 14:18 -2.53604 -44.37742 11683 ft 349 kts 201°
2026-05-09 14:19 -2.55709 -44.38948 12426 ft 352 kts 211°
2026-05-09 14:19 -2.57735 -44.40355 13038 ft 357 kts 213°
2026-05-09 14:19 -2.59745 -44.41801 13637 ft 360 kts 214°
2026-05-09 14:19 -2.61791 -44.43274 14234 ft 364 kts 214°
2026-05-09 14:20 -2.63861 -44.44756 14793 ft 368 kts 214°
2026-05-09 14:20 -2.65960 -44.46249 15336 ft 372 kts 214°
2026-05-09 14:20 -2.68083 -44.47754 15885 ft 376 kts 214°
2026-05-09 14:21 -2.72394 -44.50803 16951 ft 383 kts 214°
2026-05-09 14:21 -2.74578 -44.52347 17460 ft 386 kts 214°
2026-05-09 14:21 -2.76781 -44.53904 17962 ft 389 kts 214°
2026-05-09 14:21 -2.79001 -44.55473 18465 ft 392 kts 214°
2026-05-09 14:22 -2.81237 -44.57054 18951 ft 395 kts 214°
2026-05-09 14:22 -2.83489 -44.58645 19438 ft 397 kts 214°
2026-05-09 14:22 -2.85756 -44.60247 19906 ft 400 kts 214°
2026-05-09 14:22 -2.88037 -44.61858 20364 ft 403 kts 214°
2026-05-09 14:23 -2.90333 -44.63481 20812 ft 405 kts 214°
2026-05-09 14:23 -2.92644 -44.65114 21243 ft 408 kts 214°
2026-05-09 14:23 -2.94965 -44.66764 21674 ft 410 kts 214°
2026-05-09 14:23 -2.97298 -44.68425 22081 ft 413 kts 214°
2026-05-09 14:24 -2.99647 -44.70092 22508 ft 415 kts 214°
2026-05-09 14:24 -3.01986 -44.71796 22921 ft 417 kts 219°
2026-05-09 14:24 -3.04081 -44.73818 23318 ft 420 kts 229°
2026-05-09 14:24 -3.05804 -44.76178 23744 ft 422 kts 239°
2026-05-09 14:25 -3.07250 -44.78730 24169 ft 423 kts 242°
2026-05-09 14:25 -3.08646 -44.81322 24576 ft 425 kts 242°
2026-05-09 14:25 -3.10044 -44.83927 24974 ft 427 kts 242°
2026-05-09 14:25 -3.11463 -44.86534 25359 ft 428 kts 241°
2026-05-09 14:26 -3.12900 -44.89146 25744 ft 430 kts 241°
2026-05-09 14:26 -3.14346 -44.91766 26116 ft 432 kts 241°
2026-05-09 14:26 -3.15797 -44.94395 26490 ft 433 kts 242°
2026-05-09 14:26 -3.17252 -44.97033 26851 ft 434 kts 242°
2026-05-09 14:27 -3.18710 -44.99680 27212 ft 436 kts 242°
2026-05-09 14:27 -3.20172 -45.02335 27559 ft 437 kts 242°
2026-05-09 14:27 -3.21640 -45.05001 27886 ft 439 kts 242°
2026-05-09 14:27 -3.23114 -45.07679 28205 ft 441 kts 242°
2026-05-09 14:28 -3.24593 -45.10368 28526 ft 443 kts 241°
2026-05-09 14:28 -3.26079 -45.13067 28853 ft 444 kts 241°
2026-05-09 14:28 -3.27568 -45.15774 29191 ft 446 kts 241°
2026-05-09 14:28 -3.29062 -45.18491 29518 ft 447 kts 241°
2026-05-09 14:29 -3.30561 -45.21213 29850 ft 448 kts 241°
2026-05-09 14:29 -3.32063 -45.23941 30187 ft 449 kts 241°
2026-05-09 14:29 -3.33568 -45.26675 30500 ft 450 kts 241°
2026-05-09 14:29 -3.35078 -45.29419 30785 ft 452 kts 241°
2026-05-09 14:30 -3.36592 -45.32173 31081 ft 453 kts 241°
2026-05-09 14:30 -3.38106 -45.34925 31497 ft 451 kts 241°
2026-05-09 14:30 -3.39608 -45.37659 31978 ft 448 kts 241°
2026-05-09 14:30 -3.41099 -45.40369 32453 ft 444 kts 241°
2026-05-09 14:31 -3.42579 -45.43060 32906 ft 441 kts 241°
2026-05-09 14:31 -3.44053 -45.45738 33328 ft 439 kts 241°
2026-05-09 14:31 -3.45521 -45.48407 33724 ft 438 kts 241°
2026-05-09 14:31 -3.46983 -45.51067 34097 ft 436 kts 241°
2026-05-09 14:32 -3.48441 -45.53720 34456 ft 435 kts 241°
2026-05-09 14:32 -3.49896 -45.56364 34806 ft 434 kts 241°
2026-05-09 14:32 -3.51344 -45.59000 35145 ft 432 kts 241°
2026-05-09 14:32 -3.52788 -45.61627 35474 ft 431 kts 241°
2026-05-09 14:33 -3.54227 -45.64245 35790 ft 429 kts 241°
2026-05-09 14:33 -3.55659 -45.66855 36082 ft 428 kts 241°
2026-05-09 14:33 -3.57082 -45.69462 36350 ft 427 kts 241°
2026-05-09 14:33 -3.58504 -45.72064 36592 ft 427 kts 241°
2026-05-09 14:34 -3.59926 -45.74661 36832 ft 426 kts 241°
2026-05-09 14:34 -3.61346 -45.77253 37071 ft 425 kts 241°
2026-05-09 14:34 -3.62764 -45.79839 37301 ft 424 kts 241°
2026-05-09 14:34 -3.64179 -45.82418 37523 ft 423 kts 241°
2026-05-09 14:35 -3.65592 -45.84992 37722 ft 422 kts 241°
2026-05-09 14:35 -3.67005 -45.87567 37870 ft 423 kts 241°
2026-05-09 14:35 -3.69841 -45.92732 37936 ft 425 kts 241°
2026-05-09 14:36 -3.72681 -45.97906 37941 ft 425 kts 241°
2026-05-09 14:36 -3.75521 -46.03080 37943 ft 424 kts 241°
2026-05-09 14:37 -3.78360 -46.08252 37944 ft 425 kts 241°
2026-05-09 14:37 -3.81197 -46.13424 37946 ft 424 kts 241°
2026-05-09 14:38 -3.84032 -46.18590 37949 ft 424 kts 241°
2026-05-09 14:38 -3.86863 -46.23751 37948 ft 423 kts 241°
2026-05-09 14:39 -3.89691 -46.28907 37947 ft 423 kts 241°
2026-05-09 14:39 -3.92519 -46.34066 37949 ft 424 kts 241°
2026-05-09 14:40 -3.95350 -46.39230 37950 ft 424 kts 241°
2026-05-09 14:40 -3.98178 -46.44391 37950 ft 423 kts 241°
2026-05-09 14:41 -4.01003 -46.49546 37950 ft 423 kts 241°
2026-05-09 14:41 -4.03828 -46.54704 37952 ft 423 kts 241°
2026-05-09 14:42 -4.06654 -46.59864 37955 ft 423 kts 241°
2026-05-09 14:42 -4.09478 -46.65018 37960 ft 423 kts 242°
2026-05-09 14:43 -4.12302 -46.70168 37963 ft 422 kts 241°
2026-05-09 14:43 -4.15129 -46.75312 37965 ft 422 kts 241°
2026-05-09 14:44 -4.17948 -46.80453 37965 ft 422 kts 242°
2026-05-09 14:44 -4.20766 -46.85597 37965 ft 422 kts 242°
2026-05-09 14:45 -4.23583 -46.90742 37965 ft 422 kts 242°
2026-05-09 14:45 -4.26402 -46.95894 37964 ft 422 kts 242°
2026-05-09 14:46 -4.29224 -47.01052 37964 ft 423 kts 242°
2026-05-09 14:46 -4.32046 -47.06210 37963 ft 423 kts 242°
2026-05-09 14:47 -4.34866 -47.11369 37961 ft 422 kts 242°
2026-05-09 14:47 -4.37680 -47.16520 37959 ft 422 kts 242°
2026-05-09 14:48 -4.40493 -47.21666 37959 ft 422 kts 242°
2026-05-09 14:48 -4.43307 -47.26814 37959 ft 422 kts 242°
2026-05-09 14:49 -4.46116 -47.31958 37960 ft 421 kts 242°
2026-05-09 14:49 -4.48927 -47.37103 37961 ft 421 kts 242°
2026-05-09 14:50 -4.51738 -47.42250 37961 ft 422 kts 242°
2026-05-09 14:50 -4.54549 -47.47398 37962 ft 421 kts 242°
2026-05-09 14:51 -4.57355 -47.52541 37963 ft 421 kts 242°
2026-05-09 14:51 -4.60157 -47.57675 37964 ft 420 kts 242°
2026-05-09 14:52 -4.62955 -47.62803 37966 ft 420 kts 242°
2026-05-09 14:52 -4.65748 -47.67936 37973 ft 420 kts 242°
2026-05-09 14:53 -4.68539 -47.73078 37980 ft 421 kts 242°
2026-05-09 14:53 -4.71337 -47.78219 37994 ft 421 kts 242°
2026-05-09 14:54 -4.74134 -47.83352 37997 ft 420 kts 242°
2026-05-09 14:54 -4.76927 -47.88476 37995 ft 419 kts 242°
2026-05-09 14:55 -4.79717 -47.93598 37993 ft 419 kts 242°
2026-05-09 14:55 -4.82502 -47.98712 37992 ft 419 kts 242°
2026-05-09 14:56 -4.85287 -48.03825 37989 ft 419 kts 242°
2026-05-09 14:56 -4.88076 -48.08947 37989 ft 420 kts 242°
2026-05-09 14:57 -4.90868 -48.14072 37991 ft 419 kts 242°
2026-05-09 14:57 -4.93658 -48.19196 37989 ft 420 kts 242°
2026-05-09 14:58 -4.96446 -48.24318 37985 ft 418 kts 242°
2026-05-09 14:58 -4.99225 -48.29422 37986 ft 417 kts 242°
2026-05-09 14:59 -5.01999 -48.34519 37982 ft 417 kts 242°
2026-05-09 14:59 -5.04774 -48.39619 37975 ft 417 kts 242°
2026-05-09 15:00 -5.07551 -48.44717 37965 ft 418 kts 241°
2026-05-09 15:00 -5.10356 -48.49812 37964 ft 418 kts 241°
2026-05-09 15:01 -5.13192 -48.54909 37649 ft 422 kts 241°
2026-05-09 15:01 -5.14619 -48.57477 36975 ft 423 kts 241°
2026-05-09 15:01 -5.16047 -48.60052 36218 ft 425 kts 241°
2026-05-09 15:02 -5.17477 -48.62642 35451 ft 427 kts 242°
2026-05-09 15:02 -5.18911 -48.65241 34692 ft 428 kts 242°
2026-05-09 15:02 -5.20345 -48.67852 33983 ft 429 kts 242°
2026-05-09 15:02 -5.21779 -48.70469 33250 ft 430 kts 242°
2026-05-09 15:03 -5.23220 -48.73095 32522 ft 432 kts 243°
2026-05-09 15:03 -5.24666 -48.75735 31822 ft 434 kts 242°
2026-05-09 15:03 -5.26131 -48.78408 31120 ft 435 kts 242°
2026-05-09 15:03 -5.27580 -48.81048 30442 ft 436 kts 242°
2026-05-09 15:04 -5.29048 -48.83722 29763 ft 437 kts 242°
2026-05-09 15:04 -5.30500 -48.86361 29324 ft 432 kts 242°
2026-05-09 15:06 -5.40393 -49.04354 25980 ft 415 kts 241°
2026-05-09 15:06 -5.41773 -49.06865 25521 ft 413 kts 241°
2026-05-09 15:06 -5.43168 -49.09404 25041 ft 412 kts 241°
2026-05-09 15:06 -5.44543 -49.11907 24559 ft 410 kts 241°
2026-05-09 15:07 -5.45915 -49.14403 24066 ft 410 kts 241°
2026-05-09 15:07 -5.47282 -49.16893 23549 ft 410 kts 240°
2026-05-09 15:07 -5.48666 -49.19413 23063 ft 409 kts 240°
2026-05-09 15:07 -5.50027 -49.21891 22566 ft 408 kts 240°
2026-05-09 15:08 -5.51396 -49.24383 22061 ft 409 kts 240°
2026-05-09 15:08 -5.54136 -49.29369 21173 ft 406 kts 241°
2026-05-09 15:08 -5.55494 -49.31840 20736 ft 404 kts 241°
2026-05-09 15:09 -5.56836 -49.34286 20307 ft 402 kts 241°
2026-05-09 15:10 -5.66056 -49.51096 17391 ft 383 kts 242°
2026-05-09 15:11 -5.67323 -49.53406 16976 ft 380 kts 242°
2026-05-09 15:11 -5.68607 -49.55748 16556 ft 377 kts 242°
2026-05-09 15:11 -5.69864 -49.58042 16133 ft 374 kts 242°
2026-05-09 15:11 -5.71105 -49.60310 15713 ft 372 kts 242°
2026-05-09 15:12 -5.72349 -49.62582 15302 ft 369 kts 242°
2026-05-09 15:12 -5.73570 -49.64812 14888 ft 367 kts 242°
2026-05-09 15:12 -5.74798 -49.67062 14475 ft 364 kts 242°
2026-05-09 15:12 -5.75996 -49.69262 14058 ft 361 kts 242°
2026-05-09 15:13 -5.77203 -49.71479 13639 ft 359 kts 242°
2026-05-09 15:13 -5.78393 -49.73656 13236 ft 356 kts 242°
2026-05-09 15:13 -5.79579 -49.75825 12834 ft 353 kts 242°
2026-05-09 15:13 -5.80760 -49.77985 12445 ft 350 kts 242°
2026-05-09 15:14 -5.81923 -49.80111 12054 ft 348 kts 242°
2026-05-09 15:14 -5.83083 -49.82231 11663 ft 346 kts 241°
2026-05-09 15:14 -5.84238 -49.84342 11269 ft 343 kts 241°
2026-05-09 15:14 -5.85392 -49.86451 10892 ft 341 kts 241°
2026-05-09 15:15 -5.86522 -49.88515 10506 ft 340 kts 241°
2026-05-09 15:15 -5.87280 -49.89901 10240 ft 338 kts 240°
2026-05-09 15:15 -5.88756 -49.92600 10090 ft 321 kts 240°
2026-05-09 15:15 -5.89808 -49.94522 10038 ft 307 kts 240°
2026-05-09 15:16 -5.90819 -49.96368 9766 ft 303 kts 240°
2026-05-09 15:16 -5.91829 -49.98212 9445 ft 301 kts 240°
2026-05-09 15:16 -5.92842 -50.00064 9123 ft 299 kts 240°
2026-05-09 15:16 -5.93833 -50.01870 8806 ft 298 kts 240°
2026-05-09 15:17 -5.94836 -50.03702 8483 ft 296 kts 240°
2026-05-09 15:17 -5.95821 -50.05502 8173 ft 294 kts 240°
2026-05-09 15:17 -5.96792 -50.07276 7866 ft 292 kts 240°
2026-05-09 15:17 -5.97771 -50.09065 7565 ft 290 kts 240°
2026-05-09 15:18 -5.98736 -50.10832 7267 ft 288 kts 239°
2026-05-09 15:18 -5.99697 -50.12591 6970 ft 287 kts 239°
2026-05-09 15:18 -6.00655 -50.14342 6675 ft 285 kts 239°
2026-05-09 15:18 -6.01603 -50.16077 6386 ft 282 kts 239°
2026-05-09 15:19 -6.02550 -50.17810 6091 ft 280 kts 239°
2026-05-09 15:19 -6.03646 -50.19395 5757 ft 276 kts 218°
2026-05-09 15:19 -6.05309 -50.20245 5506 ft 270 kts 187°
2026-05-09 15:19 -6.07201 -50.20238 5358 ft 270 kts 169°
2026-05-09 15:20 -6.09066 -50.19971 4961 ft 273 kts 168°
2026-05-09 15:20 -6.12635 -50.19235 4686 ft 244 kts 143°
2026-05-09 15:20 -6.13656 -50.18001 4609 ft 223 kts 108°
2026-05-09 15:21 -6.13823 -50.16534 4544 ft 208 kts 83°
2026-05-09 15:21 -6.13613 -50.15118 4473 ft 198 kts 82°
2026-05-09 15:21 -6.13427 -50.13829 4392 ft 180 kts 83°
2026-05-09 15:21 -6.13270 -50.12650 4260 ft 158 kts 83°
2026-05-09 15:22 -6.13139 -50.11620 4105 ft 144 kts 83°
2026-05-09 15:22 -6.13016 -50.10624 3869 ft 143 kts 84°
2026-05-09 15:22 -6.12896 -50.09623 3661 ft 143 kts 84°
2026-05-09 15:22 -6.12778 -50.08645 3466 ft 142 kts 84°
2026-05-09 15:23 -6.12661 -50.07652 3272 ft 142 kts 84°
2026-05-09 15:23 -6.12545 -50.06666 3081 ft 141 kts 84°
2026-05-09 15:23 -6.12429 -50.05694 2896 ft 141 kts 84°
2026-05-09 15:23 -6.12312 -50.04713 2704 ft 141 kts 84°
2026-05-09 15:24 -6.12196 -50.03745 2522 ft 140 kts 84°
2026-05-09 15:24 -6.12083 -50.02779 2334 ft 140 kts 85°
2026-05-09 15:24 -6.11953 -50.01804 2130 ft 139 kts 83°
2026-05-09 15:24 -6.11832 -50.00848 2029 ft 132 kts 86°
2026-05-09 15:25 -6.11756 -50.00177 2027 ft 55 kts 83°
2026-05-09 15:25 -6.11730 -49.99948 2026 ft 28 kts 84°
2026-05-09 15:25 -6.11706 -49.99760 2026 ft 25 kts 83°
2026-05-09 15:26 -6.11692 -49.99520 2025 ft 4 kts 79°
2026-05-09 15:26 -6.11680 -49.99540 2025 ft 6 kts 271°
2026-05-09 15:26 -6.11687 -49.99605 2025 ft 11 kts 263°
2026-05-09 15:26 -6.11698 -49.99701 2026 ft 15 kts 262°
2026-05-09 15:27 -6.11715 -49.99823 2026 ft 19 kts 263°
2026-05-09 15:27 -6.11735 -49.99968 2026 ft 22 kts 261°
2026-05-09 15:27 -6.11748 -50.00116 2027 ft 12 kts 264°
2026-05-09 15:27 -6.11746 -50.00169 2027 ft 5 kts 328°
2026-05-09 15:28 -6.11709 -50.00182 2027 ft 6 kts 345°
2026-05-09 15:28 -6.11665 -50.00192 2027 ft 6 kts 353°
2026-05-09 15:28 -6.11618 -50.00197 2028 ft 6 kts 354°
2026-05-09 15:28 -6.11576 -50.00192 2028 ft 4 kts 31°
2026-05-09 15:29 -6.11561 -50.00164 2028 ft 5 kts 76°
2026-05-09 15:29 -6.11539 -50.00140 2028 ft 3 kts 34°
2026-05-09 15:29 -6.11519 -50.00127 2028 ft 2 kts 31°
2026-05-09 15:29 -6.11515 -50.00125 2028 ft 0 kts 31°